Regional Weather Roundup
Issued by NWS

Home | Current Version | Previous Version | Text Only | Print | Product List | Glossary On
Versions: 1 2 3 4 5 6 7 8 9 10 11 12 13 14 15 16 17 18 19 20 21 22 23 24 25 26 27 28 29 30 31 32 33 34 35 36 37 38 39 40 41 42 43 44 45 46 47 48 49 50
000
ASUS45 KPSR 242210
RWRAZ

ARIZONA REGIONAL HOURLY WEATHER ROUNDUP
NATIONAL WEATHER SERVICE PHOENIX AZ
300 PM MST THU APR 24 2014

NOTE: FAIR INDICATES FEW OR NO CLOUDS BELOW 12,000 FEET WITH NO
SIGNIFICANT WEATHER AND/OR OBSTRUCTIONS TO VISIBILITY.

AZZ001>003-036-242300-
NORTHWEST ARIZONA

CITY           SKY/WX    TMP DP  RH WIND       PRES   REMARKS
BULLHEAD CITY  SUNNY     86   7   5 SE7       29.84F
KINGMAN        SUNNY     79   1   5 SW18G26   29.96F
$$

AZZ004>008-015-016-018-242300-
NORTH CENTRAL ARIZONA

CITY           SKY/WX    TMP DP  RH WIND       PRES   REMARKS
GRAND CANYON   SUNNY     67   3   8 SW16G26   30.07F
WILLIAMS       SUNNY     68   0   6 SW8G20    30.15F
PRESCOTT       SUNNY     74  10   8 SW12      30.02F
FLAGSTAFF      SUNNY     65   8  10 SW15G21   30.10F
PAYSON         SUNNY     73  12   9 SW10G20   30.06F
PAGE           SUNNY     73  13  10 NE9       29.97F
$$

AZZ009>014-017-242300-
NORTHEAST ARIZONA

CITY           SKY/WX    TMP DP  RH WIND       PRES   REMARKS
WINSLOW        SUNNY     76  14   9 SE10      30.00F
SAINT JOHNS    SUNNY     70   1   6 NW9G17    30.03F
WINDOW ROCK    MOSUNNY   70   3   7 W13G20    30.07F
SHOW LOW       MOSUNNY   68   5   8 SW13G21   30.10F
$$

AZZ023-242300-
GREATER PHOENIX AREA

CITY           SKY/WX    TMP DP  RH WIND       PRES   REMARKS
PHOENIX        MOSUNNY   88  10   5 N5        29.86F
BUCKEYE          N/A     86  12   6 S7        29.88F
GLENDALE       MOSUNNY   88  12   6 W10       29.89F
LUKE AFB       NOT AVBL
DEER VALLEY    SUNNY     84   8   5 W7        29.88F
SCOTTSDALE     SUNNY     86  13   6 VRB5      29.90F
MESA-FALCON    MOSUNNY   90   9   5 W7        29.88F
MESA-GATEWAY   MOSUNNY   86  16   7 W7        29.90F
CHANDLER         N/A     86  14   7 S9        29.88F
$$

AZZ027-028-242300-
SOUTHWEST MARICOPA COUNTY AND PINAL COUNTY

CITY           SKY/WX    TMP DP  RH WIND       PRES   REMARKS
CASA GRANDE    SUNNY     88  25  10 W6        29.89F
GILA BEND      PTCLDY    90  16   6 W8G17     29.87F
$$

AZZ503-504-507>509-242300-
SOUTHEAST ARIZONA

CITY           SKY/WX    TMP DP  RH WIND       PRES   REMARKS
TUCSON         SUNNY     87   8   5 W10G18    29.93F
DAVIS-MONTHAN  SUNNY     86  15   7 VRB3      29.92F
RYAN FIELD       N/A     88  18   7 MISG      29.92F
NOGALES        SUNNY     84  16   8 SW12G22   29.99F
DOUGLAS        SUNNY     84  13   7 SW9G20    29.98F
SAFFORD        SUNNY     87   8   5 NE9       29.91F
$$

AZZ020-021-025-026-031-242300-
SOUTHWEST ARIZONA

CITY           SKY/WX    TMP DP  RH WIND       PRES   REMARKS
YUMA           PTSUNNY   91  17   6 S6        29.84F
$$

CAZ031-033-041-043-047-048-061-242300-
SOUTHERN CALIFORNIA

CITY           SKY/WX    TMP DP  RH WIND       PRES   REMARKS
DOWNTOWN L.A.  SUNNY     73  48  41 VRB3      29.92F
L.A. AIRPORT   SUNNY     69  51  52 W15       29.94F
SAN DIEGO      MOSUNNY   68  52  56 SW9       29.97F
BURBANK        SUNNY     79  43  27 S10       29.91F
ONTARIO        SUNNY     82  39  21 SW13      29.91F
RIVERSIDE      SUNNY     82  42  24 W10G18    29.90F
PALM SPRINGS   SUNNY     90  19   7 S8        29.85F
EL CENTRO NAS  MOSUNNY   89  31  12 E5        29.82F
IMPERIAL       SUNNY     90  30  11 SE10      29.82F
BLYTHE         SUNNY     90  16   6 CALM      29.85F
NEEDLES        SUNNY     91   7   4 E9        29.84F
$$

NVZ020-UTZ003-242300-
SOUTHERN NEVADA-UTAH

CITY           SKY/WX    TMP DP  RH WIND       PRES   REMARKS
LAS VEGAS      SUNNY     84  10   6 S9        29.84F
SALT LAKE CITY CLOUDY    66  22  18 W10       29.95S
$$

NMZ009-TXZ055-242300-
NEW MEXICO-WEST TEXAS

CITY           SKY/WX    TMP DP  RH WIND       PRES   REMARKS
ALBUQUERQUE    MOSUNNY   67   9  10 SE3       30.05F
EL PASO        MOSUNNY   79  10   7 CALM      29.99F
$$


........................KEY........................
SKY/WX - SKY CONDITION/WEATHER
TMP    - TEMPERATURE IN FAHRENHEIT
DP     - DEW POINT IN FAHRENHEIT
RH     - RELATIVE HUMIDITY IN PERCENT
WIND   - DIRECTION AND SPEED IN MILES PER HOUR (MPH)
VRB    - VARIABLE WIND DIRECTION
PRES   - MEAN SEA LEVEL PRESSURE IN INCHES OF MERCURY
         F - FALLING PRESSURE   R - RISING PRESSURE
         S - STEADY PRESSURE
VSB    - VISIBILITY IN MILES
HX     - HEAT INDEX IN FAHRENHEIT
WCI    - WIND CHILL INDEX IN FAHRENHEIT
TC     - TEMPERATURE IN CELSIUS WHICH IS ALSO KNOWN AS
         TEMPERATURE IN CENTIGRADE
AFB    - AIR FORCE BASE
         LUKE AFB IS LUKE AIR FORCE BASE
         DAVIS-MONTHAN IS DAVIS-MONTHAN AIR FORCE BASE
NAS    - NAVAL AIR STATION
         EL CENTRO NAS IS EL CENTRO NAVAL AIR STATION
N/A    - NOT AVAILABLE



USA.gov is the U.S. government's official web portal to all federal, state and local government web resources and services.